User: anonymous
Location: Stonelick Lake State Park
(39.2170°N, 84.0850°W)
Time: 13:27:51
(UTC-04:00)
Language:

Abrixas rocket - Orbit

View from above orbital plane
View from above orbital plane
View from above satellite
View from above satellite

Ground track
Ground track

The orbit data is extracted from the following two-line orbital elements,

1 25723U 99022C   14109.48443082  .00019665  00000-0  67581-3 0  6320
2 25723 048.4236 103.3024 0018745 313.3925 185.3611 15.29842705828165
Epoch (UTC): 19 April 2014 11:37:34
Eccentricity: 0.0018745
inclination: 48.4236°
perigee height: 463 km
apogee height: 489 km
right ascension of ascending node: 103.3024°
argument of perigee: 313.3925°
revolutions per day: 15.29842705
mean anomaly at epoch: 185.3611°
orbit number at epoch: 82816

The dashed part of the orbit path shows where the satellite is in the earth's shadow,  

DLR